Home > Weather > Woodstock > Past weeks

Flag for USA Past Weather in Woodstock, New York, USA — Yesterday and Last 2 Weeks

Now
78 °F

Sunny.


Feels Like: 80 °F
Forecast: 63 / 83 °F
Wind: 6 mph from Southwest

Location: Dutchess County Airport

Current Time: Aug 25, 2016 at 11:10:18 AM

Latest Report: Aug 25, 2016 at 9:53 AM


Visibility: 10 mi

Pressure: 30.06 "Hg

Humidity: 60%

Dew Point: 63 °F

Location of WoodstockLocation

Past Weather in Woodstock — Graph

°F

Woodstock Temperature Yesterday

Maximum temperature yesterday: 86 °F (at 2:53 PM)
Minimum temperature yesterday: 58 °F (at 5:53 AM)
Average temperature yesterday: 73 °F

High & Low Weather Summary for the Past Weeks

 TemperatureHumidityPressure
High96 °F (Aug 13, 2:53 PM)91% (Aug 11, 3:53 AM)30.32 "Hg (Aug 11, 3:53 AM)
Low58 °F (Aug 24, 5:53 AM)40% (Aug 23, 12:53 PM)29.79 "Hg (Aug 13, 6:53 PM)
Average79 °F71%30.01 "Hg
* Reported Aug 10 10:01 AM — Aug 25 9:53 AM, Woodstock, Weather by CustomWeather, © 2016

Note: Actual official high and low records may vary slightly from our data, if they occured in-between our weather recording intervals... More about our weather records

Advertising

Woodstock Weather History for the Previous 24 Hours

Scroll right to see more
 ConditionsComfort  
Time TempWeatherWind HumidityBarometerVisibility
9:53 AM
Thu, Aug 25
78 °FSunny.6 mph60%30.06 "Hg10 mi
8:53 AM75 °FSunny.6 mph69%30.08 "Hg10 mi
7:53 AM69 °FSunny.3 mph81%30.09 "Hg10 mi
6:53 AM64 °FClear.No wind87%30.09 "Hg10 mi
5:53 AM64 °FClear.No wind87%30.09 "Hg10 mi
4:53 AM65 °FClear.No wind87%30.09 "Hg10 mi
3:53 AM65 °FClear.No wind87%30.09 "Hg10 mi
2:53 AM66 °FClear.5 mph90%30.09 "Hg10 mi
1:53 AM70 °FClear.3 mph79%30.10 "Hg10 mi
12:53 AM72 °FClear.No wind73%30.11 "Hg10 mi
11:53 PM
Wed, Aug 24
72 °FClear.5 mph73%30.13 "Hg10 mi
10:53 PM73 °FClear.3 mph71%30.13 "Hg10 mi
9:53 PM71 °FClear.No wind78%30.13 "Hg10 mi
8:53 PM73 °FClear.No wind76%30.12 "Hg10 mi
7:53 PM78 °FSunny.No wind62%30.12 "Hg10 mi
6:53 PM84 °FSunny.3 mph46%30.13 "Hg10 mi
5:53 PM86 °FSunny.6 mph45%30.13 "Hg10 mi
4:53 PM86 °FSunny.6 mph42%30.14 "Hg10 mi
3:53 PM86 °FSunny.6 mph42%30.15 "Hg10 mi
2:53 PM86 °FSunny.6 mph40%30.16 "Hg10 mi
1:53 PM85 °FSunny.9 mph40%30.19 "Hg10 mi
12:53 PM84 °FSunny.7 mph46%30.20 "Hg10 mi
11:53 AM80 °FSunny.No wind54%30.23 "Hg10 mi
Weather by CustomWeather, © 2016

See weather overviewHow to use our weather pages